Regional Weather Roundup
Issued by NWS Albany, NY

Home | Current Version | Previous Version | Text Only | Print | Product List | Glossary On
Versions: 1 2 3 4 5 6 7 8 9 10 11 12 13 14 15 16 17 18 19 20 21 22 23 24 25 26 27 28 29 30 31 32 33 34 35 36 37 38 39 40 41 42 43 44 45 46 47 48 49 50
000
ASUS41 KALY 231710
RWRALY

NEW YORK STATE HOURLY WEATHER ROUNDUP
NATIONAL WEATHER SERVICE ALBANY NY
100 PM EDT SAT AUG 23 2014

NOTE: "FAIR" INDICATES FEW OR NO CLOUDS BELOW 12,000 FEET WITH NO
SIGNIFICANT WEATHER AND/OR NO OBSTRUCTIONS TO VISIBILITY.

NYZ032-033-038>043-046>054-057>066-NYZ062>081-231800-
EAST


CITY           SKY/WX    TMP DP  RH WIND       PRES   REMARKS
ALBANY         PTSUNNY   72  57  59 NE3       30.13F
GLENS FALLS    CLOUDY    71  58  63 NE3       30.13F
POUGHKEEPSIE   PTSUNNY   73  56  54 CALM      30.10F
NEWBURGH       PTSUNNY   72  61  68 E6        30.12
MONTGOMERY     CLOUDY    71  58  63 NE9       30.11F
WHITE PLAINS   PTSUNNY   70  58  65 VRB6      30.10F
ISLIP          PTSUNNY   74  58  57 NE8       30.07F
NEW YORK CITY  PTSUNNY   72  59  63 NE15      30.08F
CENTRAL PARK   CLOUDY    73  58  59 E9        30.12S
$$

NYZ005>009-017-018-044>046-055-056-231800-
CENTRAL


CITY           SKY/WX    TMP DP  RH WIND       PRES   REMARKS
FULTON         CLOUDY    71  62  73 VRB6      30.10S
SYRACUSE       CLOUDY    72  62  71 E14       30.09S
ROME           CLOUDY    70  61  73 SE10      30.13F
ELMIRA         CLOUDY    67  63  87 SE5       30.09S
BINGHAMTON     LGT RAIN  62  61  96 SE6       30.12S FOG
MONTICELLO     CLOUDY    64  59  82 E8        30.15S
$$

NYZ026>034-041>043-231800-
NORTH


CITY           SKY/WX    TMP DP  RH WIND       PRES   REMARKS
WATERTOWN      CLOUDY    71  62  73 NE8       30.11S
FORT DRUM      NOT AVBL
MASSENA        SUNNY     76  63  64 NE10      30.13F
SARANAC LAKE   CLOUDY    68  54  60 E8        30.15S
PLATTSBURGH    SUNNY     74  58  57 CALM      30.14F
$$

NYZ001>004-010>016-019>021-231800-
WEST


CITY           SKY/WX    TMP DP  RH WIND       PRES   REMARKS
NIAGARA FALLS  CLOUDY    72  65  78 NE10      30.06F
BUFFALO        PTSUNNY   75  64  68 NE10      30.05F
DUNKIRK        MOSUNNY   73  65  75 N12       30.05S
JAMESTOWN      MOSUNNY   72  63  73 NE6       30.07S
WELLSVILLE     CLOUDY    71  63  75 SE12G17   30.11R
ROCHESTER      PTSUNNY   73  66  78 NE10      30.06F
PENN YAN       CLOUDY    70  62  76 SE9       30.08F
$$

             KEY
       WCI = WIND CHILL INDEX
       VSB = VISIBILITY
       HX  = HEAT INDEX
$$



USA.gov is the U.S. government's official web portal to all federal, state and local government web resources and services.